DB2YI-13 Weather Reports


time (UTC)temp
F
wind
direction
speed
knots
gust
knots
rain 1hr
in
rain 24hr
in
rain mn
in
humidity
%
barometer
mb
20260507090001 53 0 0.0 0.9 0.00 0.01 0.01 80
20260507085002 52 0 0.0 1.7 0.00 0.01 0.01 82
20260507084001 52 0 0.0 0.0 0.00 0.01 0.01 83
20260507083001 52 0 0.0 0.0 0.00 0.01 0.01 85
20260507082001 51 0 0.0 0.0 0.00 0.01 0.01 85
20260507081005 51 0 0.0 0.0 0.00 0.01 0.01 86
20260507080001 50 0 0.9 1.7 0.00 0.01 0.01 86
20260507075001 50 0 0.9 1.7 0.00 0.01 0.01 86
20260507074001 50 0 0.0 0.0 0.00 0.01 0.01 87
20260507073001 49 0 0.9 0.9 0.00 0.01 0.01 87
20260507072001 49 0 0.0 0.9 0.00 0.01 0.01 87
20260507071001 49 0 0.0 0.0 0.00 0.01 0.01 87
20260507070003 49 0 0.0 0.0 0.00 0.01 0.01 87
20260507065001 49 0 0.0 0.0 0.00 0.01 0.01 87
20260507064002 49 0 0.0 0.0 0.00 0.01 0.01 88
20260507063001 49 0 0.9 0.9 0.00 0.01 0.01 88
20260507062001 48 0 0.9 1.7 0.00 0.01 0.01 88
20260507061001 48 0 2.6 9.6 0.00 0.01 0.01 88
20260507060001 48 0 1.7 2.6 0.00 0.01 0.01 88
20260507055001 48 0 0.9 1.7 0.00 0.01 0.01 88
20260507054001 48 0 0.0 0.9 0.00 0.01 0.01 88
20260507053001 48 0 0.0 0.0 0.00 0.01 0.01 89
20260507052001 48 0 0.0 0.0 0.00 0.01 0.01 89
20260507051005 48 0 0.0 0.0 0.00 0.01 0.01 89
20260507050001 48 0 0.0 0.9 0.00 0.01 0.01 91
20260507045001 48 0 0.0 0.0 0.00 0.02 0.01 91
20260507044001 48 0 0.0 0.0 0.00 0.02 0.01 91
20260507043006 47 0 0.0 0.0 0.00 0.02 0.01 91
20260507042001 47 0 0.0 0.0 0.00 0.02 0.01 92
20260507041001 47 0 0.0 0.0 0.00 0.02 0.01 92
20260507040001 48 0 0.0 0.0 0.00 0.02 0.01 92
20260507035001 48 0 0.9 0.9 0.00 0.02 0.01 92
20260507034001 48 0 0.0 0.0 0.00 0.02 0.01 92
20260507033003 48 0 0.0 0.0 0.00 0.02 0.01 92
20260507032005 48 0 0.0 0.0 0.01 0.02 0.01 92
20260507031002 48 0 0.0 0.0 0.01 0.02 0.01 92
20260507030005 48 0 0.0 0.0 0.01 0.02 0.01 92
20260507025001 48 0 0.0 0.0 0.01 0.02 0.01 92
20260507024002 48 0 0.0 0.0 0.01 0.02 0.01 92
20260507023002 48 0 0.0 0.0 0.01 0.04 0.01 92
20260507022001 48 0 0.0 0.0 0.01 0.06 0.01 92
20260507021001 49 0 0.0 0.0 0.00 0.05 0.00 92
20260507020002 49 0 0.0 0.0 0.00 0.05 0.00 91
20260507015002 49 0 0.0 0.0 0.00 0.05 0.00 91
20260507014001 49 0 0.0 0.0 0.00 0.05 0.00 91
20260507013002 49 0 0.0 0.0 0.00 0.05 0.00 89
20260507012001 49 0 0.0 0.0 0.00 0.05 0.00 89
20260507011001 49 0 0.0 0.0 0.00 0.06 0.00 89
20260507010001 49 0 0.0 0.9 0.00 0.06 0.00 89
20260507005001 49 0 0.0 0.9 0.00 0.06 0.00 88
20260507004001 49 0 0.0 0.0 0.00 0.06 0.00 88
20260507003001 49 0 0.0 0.9 0.00 0.06 0.00 87
20260507002001 49 0 0.0 0.9 0.00 0.06 0.00 87
20260507001001 49 0 0.0 0.0 0.00 0.06 0.00 87
20260507000002 49 0 0.0 0.0 0.00 0.06 0.00 87
20260506235002 49 0 0.0 0.9 0.00 0.06 0.00 86
20260506234001 49 0 0.0 0.9 0.00 0.06 0.00 86
20260506233001 49 0 0.0 0.0 0.00 0.06 0.00 86
20260506232001 49 0 1.7 1.7 0.00 0.06 0.00 85
20260506231001 49 0 1.7 1.7 0.00 0.06 0.00 85
20260506230001 50 0 1.7 2.6 0.00 0.06 0.00 85
20260506225003 50 0 0.0 0.9 0.00 0.06 0.00 85
20260506224001 50 0 0.9 1.7 0.00 0.06 0.00 85
20260506223001 50 0 0.0 0.0 0.00 0.06 0.00 85
20260506222002 50 0 0.0 0.0 0.00 0.06 0.00 85
20260506221009 50 0 0.0 0.0 0.00 0.06 0.00 85
20260506220001 50 0 0.0 0.9 0.00 0.06 0.06 85
20260506215004 50 0 0.0 0.0 0.00 0.06 0.06 85
20260506214002 50 0 0.0 0.0 0.00 0.06 0.06 85
20260506213002 51 0 0.0 0.0 0.00 0.07 0.06 85
20260506212001 51 0 0.0 0.0 0.00 0.07 0.06 85
20260506211001 51 0 0.0 0.0 0.00 0.12 0.06 85
20260506210001 51 0 0.0 0.0 0.00 0.16 0.06 85
20260506205001 51 0 0.0 0.0 0.00 0.17 0.06 85
20260506204001 51 0 0.0 0.0 0.00 0.17 0.06 85
20260506203001 51 0 0.0 0.0 0.00 0.17 0.06 85
20260506202002 51 0 0.0 0.0 0.00 0.17 0.06 85
20260506201002 52 0 0.0 0.0 0.00 0.17 0.06 85
20260506200003 52 0 0.0 0.0 0.00 0.18 0.06 85
20260506195001 52 0 0.0 0.0 0.00 0.18 0.06 85
20260506194002 52 0 0.0 0.9 0.00 0.19 0.06 85
20260506193002 52 0 0.0 0.9 0.00 0.20 0.06 85
20260506192001 52 0 0.0 0.0 0.00 0.20 0.06 85
20260506191001 53 0 0.0 0.0 0.00 0.21 0.06 86
20260506190001 53 0 0.0 0.9 0.00 0.22 0.06 86
20260506185002 53 0 0.0 0.9 0.00 0.22 0.06 86
20260506184002 53 0 0.0 0.0 0.00 0.23 0.06 85
20260506183001 54 0 0.0 0.9 0.00 0.23 0.06 84
20260506182001 55 0 0.9 0.9 0.00 0.24 0.06 83
20260506181001 55 0 0.9 1.7 0.00 0.25 0.06 83
20260506180001 55 0 1.7 1.7 0.00 0.25 0.06 83
20260506175003 55 0 1.7 2.6 0.00 0.25 0.06 84
20260506173001 56 0 0.9 1.7 0.00 0.26 0.06 84
20260506172001 56 0 0.9 2.6 0.00 0.26 0.06 84
20260506171002 56 0 0.9 2.6 0.00 0.27 0.06 83
20260506170001 56 0 1.7 1.7 0.00 0.28 0.06 83
20260506165001 57 0 2.6 2.6 0.00 0.31 0.06 83
20260506164002 57 0 1.7 2.6 0.00 0.37 0.06 83
20260506163001 57 0 2.6 4.3 0.00 0.39 0.06 83
20260506162002 57 0 17.4 21.7 0.00 0.44 0.06 83
20260506161002 58 0 3.5 5.2 0.00 0.45 0.06 83
20260506160001 58 0 1.7 2.6 0.00 0.45 0.06 84
20260506155001 59 0 0.9 0.9 0.00 0.46 0.06 85
20260506151001 59 0 0.9 0.9 0.00 0.46 0.06 86
20260506150001 59 0 0.9 0.9 0.00 0.46 0.06 85
20260506145002 59 0 0.9 1.7 0.00 0.46 0.06 86
20260506144001 59 0 0.0 0.9 0.00 0.46 0.06 85
20260506143001 58 0 0.0 0.9 0.00 0.46 0.06 85
20260506142001 58 0 2.6 3.5 0.00 0.46 0.06 85
20260506141001 58 0 3.5 6.1 0.00 0.46 0.06 82
20260506140001 60 0 1.7 6.1 0.00 0.46 0.06 76
20260506135002 60 0 0.9 1.7 0.00 0.46 0.06 75
20260506134001 60 0 0.9 1.7 0.00 0.46 0.06 75
20260506133002 60 0 0.9 1.7 0.00 0.46 0.06 75
20260506132001 60 0 0.9 0.9 0.00 0.46 0.06 76
20260506131001 61 0 0.0 0.9 0.00 0.46 0.06 74
20260506130001 61 0 0.9 0.9 0.00 0.46 0.06 74
20260506125001 61 0 0.9 1.7 0.00 0.46 0.06 73
20260506124001 62 0 0.0 0.0 0.00 0.46 0.06 71
20260506123002 62 0 0.0 0.0 0.00 0.46 0.06 71
20260506122001 64 0 0.0 0.0 0.00 0.46 0.06 74
20260506121001 61 0 0.0 0.0 0.00 0.46 0.06 76
20260506120001 60 0 0.0 0.0 0.00 0.46 0.06 78
20260506115002 58 0 0.0 0.0 0.00 0.46 0.06 79
20260506114002 58 0 0.0 0.0 0.00 0.46 0.06 78
20260506113001 59 0 0.0 0.0 0.00 0.46 0.06 77
20260506112001 59 0 0.0 0.9 0.00 0.46 0.06 77
20260506111001 59 0 0.0 0.0 0.00 0.46 0.06 76
20260506110004 59 0 0.0 0.9 0.00 0.46 0.06 76
20260506105002 60 0 0.9 0.9 0.00 0.46 0.06 77
20260506104005 60 0 0.0 0.0 0.00 0.46 0.06 77
20260506103001 59 0 0.0 0.0 0.00 0.46 0.06 78
20260506102001 59 0 0.0 0.9 0.00 0.46 0.06 79
20260506101001 59 0 0.0 0.0 0.00 0.46 0.06 80
20260506100001 59 0 0.0 0.0 0.00 0.46 0.06 80
20260506095001 59 0 0.9 0.9 0.00 0.46 0.06 79
20260506094002 60 0 0.0 0.0 0.00 0.46 0.06 79
20260506093001 60 0 0.0 0.0 0.00 0.46 0.06 80
20260506092001 59 0 0.0 0.0 0.00 0.46 0.06 83
20260506091001 58 0 0.9 1.7 0.00 0.46 0.06 83